Zurück zum Katalog

TYVAK-0130

AktivWissenschaftVLEO
NORAD 48606·PAYLOAD·🇺🇸 United States

Gestartet May 15, 2021 von Cape Canaveral Space Force Station

Loading…

Nächste Überflüge (nächste 24 Stunden)

TLE

AktuellSource: Space-Track

Epoche: Sep 14, 2026, 13:57 UTC

1 48606U 21041BF  26257.58151432  .00004506  00000-0  17191-3 0  9990
2 48606  52.9956 330.5779 0011038  89.0301 271.1962 15.28650555294050

Verfolge TYVAK-0130 in Echtzeit mit AllMySat

Download on the App Store